{"data":{"norad_id":66133,"intl_designator":"2025-237V","name":"STARLINK-35520","alt_names":[],"object_type":"PAYLOAD","status":"ACTIVE","operator":null,"country":"US","launch_date":"2025-10-22","launch_site_code":"AFWTR","launch_vehicle":null,"mission":null,"orbit_class":"UNKNOWN","rcs_meters":null,"size_class":null,"mass_kg":null,"dimensions":null,"purposes":["comms"],"wikipedia_slug":null,"has_3d_model":false,"image_url":null,"decayed_at":null,"tle_current":{"epoch":"2026-05-25T02:47:29.525280Z","epoch_age_seconds":68564,"freshness":"FRESH","line1":"1 66133U 25237V   26145.11631395  .00023147  00000+0  79104-3 0  9995","line2":"2 66133  53.1606  44.4944 0001129  80.8554 279.2575 15.30206926 34316","mean_motion":15.30206926,"eccentricity":0.0001129,"inclination_deg":53.1606,"raan_deg":44.4944,"arg_perigee_deg":80.8554,"mean_anomaly_deg":279.2575,"bstar":0.00079104,"rev_number":3431,"period_min":94.104919768217,"perigee_km":474.42064859585,"apogee_km":475.96813082364,"semimajor_km":6853.3313897097,"source":"CELESTRAK","updated_at":"2026-05-25T13:38:21.066011Z"}}}